Location: Bydgoszcz
(53.1235°N, 18.0084°E)
Time: 12:30:17
(UTC+01:00)

ISS - Visible Passes

Search period start: 24 March 2019 00:00
Search period end: 03 April 2019 01:00
Orbit: 408 x 411 km, 51.6° (Epoch: 24 March)

Date Brightness Start Highest point End Pass type
(mag) Time Alt. Az. Time Alt. Az. Time Alt. Az.
24 Mar -2.9 19:33:24 10° SW 19:36:22 31° SSE 19:37:09 27° SE visible
24 Mar -1.0 21:09:25 10° WSW 21:09:56 14° WSW 21:09:56 14° WSW visible
25 Mar -2.4 18:43:13 10° SSW 18:45:52 23° SSE 18:48:33 10° E visible
25 Mar -3.4 20:18:49 10° WSW 20:21:38 52° SSW 20:21:38 52° SSW visible
26 Mar -3.5 19:28:16 10° WSW 19:31:29 47° SSE 19:33:13 23° E visible
26 Mar -1.6 21:04:37 10° W 21:05:59 22° W 21:05:59 22° W visible
27 Mar -3.9 20:13:58 10° W 20:17:15 68° S 20:17:27 66° SSE visible
28 Mar -3.7 19:23:19 10° WSW 19:26:36 63° S 19:28:51 18° E visible
28 Mar -2.1 20:59:48 10° W 21:01:37 29° W 21:01:37 29° W visible
29 Mar -3.8 20:09:06 10° W 20:12:24 66° S 20:12:58 53° SE visible
30 Mar -3.8 19:18:25 10° W 19:21:43 69° S 19:24:16 16° E visible
30 Mar -2.3 20:54:58 10° W 20:57:01 30° WSW 20:57:01 30° WSW visible
31 Mar -3.5 21:04:13 10° W 21:07:28 53° SSW 21:08:18 39° SE visible
01 Apr -3.6 20:13:29 10° W 20:16:47 62° S 20:19:35 13° ESE visible
01 Apr -2.1 21:50:12 10° W 21:52:20 24° SW 21:52:20 24° SW visible
02 Apr -2.8 20:59:21 10° W 21:02:25 36° SSW 21:03:36 26° SSE visible
